Location: Newark
(42.5928°N, 8.7846°W)
Time: 03:40:51
(UTC+00:00)

N. Korean satellite - Visible Passes

Search period start: 13 December 2019 00:00
Search period end: 23 December 2019 00:00
Orbit: 455 x 506 km, 97.2° (Epoch: 12 December)

Date Brightness Start Highest point End Pass type
(mag) Time Alt. Az. Time Alt. Az. Time Alt. Az.
13 Dec 10.0 05:22:49 10° ENE 05:23:51 11° E 05:24:52 10° ESE visible
13 Dec 6.8 06:54:09 10° N 06:57:30 42° WNW 07:00:46 10° SW visible
13 Dec 6.6 17:29:31 10° SSE 17:33:12 72° ENE 17:36:52 10° N visible
14 Dec 6.5 06:28:35 10° NNE 06:32:06 85° ESE 06:35:33 10° S visible
14 Dec 9.8 18:39:00 10° SW 18:41:19 16° W 18:43:39 10° NW visible
15 Dec 8.1 06:03:21 10° NNE 06:06:37 37° E 06:09:49 10° SSE visible
15 Dec 8.7 18:12:26 10° SSW 18:15:45 31° W 18:19:03 10° NNW visible
16 Dec 9.4 05:38:36 10° NE 05:41:02 18° E 05:43:26 10° SE visible
16 Dec 7.5 07:11:30 10° NNW 07:14:26 26° WNW 07:17:20 10° SW visible
16 Dec 7.1 17:46:35 10° S 17:50:15 67° W 17:53:54 10° NNW visible
17 Dec 6.5 06:45:41 10° N 06:49:07 54° WNW 06:52:28 10° SSW visible
18 Dec 6.9 06:20:13 10° NNE 06:23:41 65° E 06:27:05 10° S visible
18 Dec 9.6 18:30:10 10° SW 18:32:53 19° W 18:35:36 10° NW visible
19 Dec 8.6 05:55:06 10° NE 05:58:09 28° E 06:01:11 10° SSE visible
19 Dec 8.2 18:03:53 10° SSW 18:07:20 39° W 18:10:46 10° NNW visible
20 Dec 9.7 05:30:39 10° ENE 05:32:33 14° E 05:34:26 10° SE visible
20 Dec 7.2 07:02:56 10° N 07:06:04 32° WNW 07:09:08 10° SW visible
20 Dec 6.7 17:38:11 10° SSE 17:41:51 86° WSW 17:45:30 10° NNW visible
21 Dec 6.3 06:37:15 10° N 06:40:42 72° WNW 06:44:05 10° SSW visible
21 Dec 10.0 18:48:33 10° WSW 18:50:03 12° W 18:51:34 10° WNW visible
22 Dec 7.4 06:11:52 10° NNE 06:15:14 49° E 06:18:33 10° S visible
22 Dec 9.2 18:21:26 10° SSW 18:24:26 24° W 18:27:26 10° NW visible
